Regional Weather Roundup
Issued by NWS Wakefield, VA

Home | Current Version | Previous Version | Text Only | Print | Product List | Glossary Off
Versions: 1 2 3 4 5 6 7 8 9 10 11 12 13 14 15 16 17 18 19 20 21 22 23 24 25 26 27 28 29 30 31 32 33 34 35 36 37 38 39 40 41 42 43 44 45 46 47 48 49 50

000
ASUS41 KAKQ 190210
RWRAKQ

REGIONAL WEATHER ROUNDUP
NATIONAL WEATHER SERVICE WAKEFIELD VA
1000 PM EDT THU SEP 18 2014

Note: "fair" indicates few or no clouds below 12,000 feet with no
significant weather and/or obstructions to visibility. * = Denotes
station may not report precipitation (e.g., rain,snow,etc.),
thunder or fog.

VAZ042-051-052>054-056-190300-
NORTHERN VIRGINIA

CITY           SKY/WX    TMP DP  RH WIND       PRES   REMARKS
WASH NATIONAL  PTCLDY    69  61  75 NE3       30.08R
DULLES         PTCLDY    62  57  83 CALM      30.09R
FORT BELVOIR   CLEAR     62  60  93 CALM      30.09R
QUANTICO       CLEAR     65  62  90 NW5       30.09R
FREDERICKSBRG* PTCLDY    65  65 100 CALM      30.07R
STAFFORD*      CLEAR     60  60 100 CALM      30.12R FOG
WARRENTON      PTCLDY    60  60 100 CALM      30.08R FOG
CULPEPER*      PTCLDY    63  57  82 CALM      30.09R
MANASSAS*      PTCLDY    61  59  94 CALM      30.08R
LEESBURG*      CLEAR     61  55  82 N3        30.10R
WINCHESTER     CLOUDY    64  48  55 CALM      30.10R
FRONT ROYAL*   CLOUDY    61  54  77 CALM      30.09R
LURAY*         CLOUDY    64  55  72 NE3       30.10R
$$

VAZ048-049-060>072-079>083-190300-
CENTRAL AND SOUTH CENTRAL VIRGINIA...AND NORTH CENTRAL NORTH CAROLINA

CITY           SKY/WX    TMP DP  RH WIND       PRES   REMARKS
RICHMOND       PTCLDY    65  59  81 CALM      30.07R
CHESTERFIELD*  MOCLDY   N/A N/A N/A CALM      30.08R
PETERSBURG*    CLOUDY    66  58  73 E5        30.07S
HANOVER        CLOUDY    62  62 100 CALM      30.09R FOG
TAPPAHANNOCK*  CLEAR     60  58  92 CALM      30.08R
CHARLOTTSVILLE CLOUDY    64  61  90 CALM      30.08R
ORANGE*        CLOUDY    61  59  94 CALM      30.10R
LOUISA*        FOG       61  59  94 CALM      30.07R VSB 1
FARMVILLE*     CLOUDY    66  66 100 N5        30.05R
CREWE*         CLOUDY    68  62  81 CALM      30.06R
FORT PICKETT*  CLOUDY    67  60  78 E5        30.06S
LUNENBURG*     CLOUDY    68  65  88 CALM      30.05S
SOUTH HILL*    CLOUDY    70  66  88 CALM      30.11R
LAWRENCEVILLE* CLOUDY    67  62  84 CALM      30.06R
ROANOKE RAPIDS PTCLDY    64  59  82 SE3       30.06R
RALEIGH        CLOUDY    72  60  66 E5        30.04R
$$

VAZ088>098-190300-
SOUTHEAST VIRGINIA

CITY           SKY/WX    TMP DP  RH WIND       PRES   REMARKS
NORFOLK        MOCLDY    68  56  65 SE3       30.07R
VIRGINIA BEACH MOCLDY    67  56  67 E3        30.06R
NORFOLK NAVAL  MOCLDY    69  56  62 SE3       30.08R
WEST POINT*    CLOUDY    69  57  65 CALM      30.09R
NEWPORT NEWS   CLOUDY    73  57  57 CALM      30.07R
LANGLEY AFB    CLOUDY    70  57  63 SE5       30.06R
FORT EUSTIS    CLOUDY    69  52  54 SE5       30.06R
WILLIAMSBURG*  MOCLDY    70  61  73 SE3       30.08R
HR EXEC AP*    CLOUDY    61  57  88 CALM      30.09R
FRANKLIN*      CLEAR     64  57  77 CALM      30.07R
WAKEFIELD      MOCLDY    67  57  70 CALM      30.07R
$$

VAZ020-022-025-037-045-190300-
WEST CENTRAL AND SOUTHWEST VIRGINIA

CITY           SKY/WX    TMP DP  RH WIND       PRES   REMARKS
STAUNTON*      CLOUDY    65  57  73 CALM      30.11R
HOT SPRINGS VA CLOUDY    57  40  52 E3        30.18R
LYNCHBURG      CLOUDY    64  63  96 CALM      30.08R
DANVILLE       CLOUDY    69  64  84 CALM      30.05R
SOUTH BOSTON*  NOT AVBL
MARTINSVILLE   CLOUDY    66  66 100 CALM      30.09R
ROANOKE        CLOUDY    69  61  75 SE6       30.08R
BLACKSBURG     MOCLDY    63  59  88 CALM      30.12R
DUBLIN*        MOCLDY    61  57  86 CALM      30.11R
MARION*        CLOUDY    62  58  88 CALM      30.14S
HILLSVILLE*    CLOUDY    61  57  88 E3        30.12R
RICHLANDS*     CLOUDY    64  55  72 NE5       30.12S
WISE*          CLEAR     57  52  82 NE5       30.14R
ABINGDON*      MOCLDY    65  56  72 E3        30.10R
$$

MDZ021>025-VAZ099-100-190300-
SOUTHERN MARYLAND AND THE DELMARVA PENINSULA

CITY           SKY/WX    TMP DP  RH WIND       PRES   REMARKS
PATUXENT RIVER MOCLDY    63  57  81 NW9       30.08R
BAY BRIDGE APT   N/A     64  59  82 CALM      30.08R
LEONARDTOWN    CLOUDY    64  54  68 CALM      30.10R
DOVER          CLOUDY    65  57  75 W2        30.06R
GEORGETOWN     CLOUDY    63  57  81 S9        30.08R
EASTON         NOT AVBL
CAMBRIDGE      MOCLDY    63  59  88 SE6       30.08S
SALISBURY      CLOUDY    65  56  72 CALM      30.08R
OCEAN CITY     PTCLDY    60  55  83 CALM      30.08R
WALLOPS ISLAND CLEAR     65  58  78 CALM      30.08R
ACCOMACK*      MOCLDY    59  54  82 CALM      30.07S
$$

NCZ012>017-030>032-190300-
EASTERN NORTH CAROLINA

CITY           SKY/WX    TMP DP  RH WIND       PRES   REMARKS
ELIZABETH CITY PTCLDY    67  58  72 E7        30.06S
AHOSKIE*       CLEAR     63  58  82 CALM      30.06S
EDENTON*       PTCLDY    62  59  90 CALM      30.07R
CURRITUCK*     PTCLDY    65  58  76 CALM      30.07S
KILL DEVIL HLS PTCLDY    70  56  61 E5        30.05S
MANTEO         PTCLDY    69  56  63 E7        30.06S
CAPE HATTERAS  CLEAR     67  57  70 NE6       30.05R
TARBORO*       MOCLDY    64  62  90 E3        30.07R
GOLDSBORO      MOCLDY    69  66  93 E5        30.03R
WASHINGTON     MOCLDY    65  57  75 CALM      30.06R
GREENVILLE     MOCLDY    66  59  77 SE5       30.07R
NEW BERN       PTCLDY    71  58  63 E7        30.05R
WILMINGTON     PTCLDY    73  61  65 E7        30.02R
$$

VAZ048-190300-
ELSEWHERE

CITY           SKY/WX    TMP DP  RH WIND       PRES   REMARKS
HARRISBURG PA  CLEAR     57  49  74 CALM      30.09R
BALTIMORE      PTCLDY    60  58  92 CALM      30.08R
ANNAPOLIS      PTCLDY    66  62  87 CALM      30.08R
ANDREWS AFB    CLEAR     61  60  99 CALM      30.08R
WILMINGTON DE  CLEAR     62  57  83 CALM      30.09R
PHILADELPHIA   PTCLDY    65  57  75 SW3       30.08R
WILDWOOD NJ*   PTCLDY    61  52  72 CALM      30.09R
ATLANTIC CITY  PTCLDY    58  56  93 CALM      30.07R
HENDERSON NC   CLOUDY    69  59  69 CALM      30.05R
GREENSBORO     CLOUDY    69  63  81 E5        30.05R
ROCKY MOUNT    MOCLDY    68  60  75 E3        30.05R
FAYETTEVILLE   PTCLDY    69  65  86 SE5       30.02R
CHARLOTTE      MOCLDY    73  64  73 NE6       30.03R
$$

VAZ100-190300-
MARINE

STATION/POSITION TIME  TEMP    WIND        PRES    WAVE   SWELL
                       AIR SEA DIR/SP/G            HT/PER HT/PER
                 (UTC) (F)     (DEG/KT/KT) (MB)    (FT/S) (FT/S)
44066 TX TWR #4  0200   69 73   10/  4/  6 1017.9R   3/11   3/11
CAPE MAY NJ      0200   71 76  230/  6/  7 1017.8R
LEWES DE         0200   67 73  240/  4/  4 1018.1R
15NM E FENWICK I 0200   70 73              1018.3R   3/11
OCEAN-CITY-INLET 0200   69 72  230/  2/  3 1017.9S
WACHAPREAGUE VA  0200   69 75  180/  4/  5 1018.1S
THOMAS POINT MD  0200   69 74  140/  8/  8 1019.6R
GOOSES REEF MD   0200   69     120/  6/  8 1018.9S
COVE POINT MD    0200   68      50/ 12/ 14 1018.6R
SOLOMONS ISLAND  0200      76                N/A
BISHOPS HEAD MD  0200   71 74  170/  9/ 11 1017.6R
PINEY POINT MD   0200          210/  4/  5   N/A
POTOMAC MD       0200   72     210/  8/ 10 1017.3S
CAMBRIDGE MD     0200   65 74  130/  5/  9 1018.2F
LEWISETTA VA     0200   69 74  210/  4/  4 1017.7R
RAPPAHANNOCK LGT 0200          130/  9/ 10 1018.6R
STINGRAY PT      0200   72     170/ 10/ 12   N/A
YORK RVR RNG VA  0200   72     150/ 10/ 11 1017.7R
YORKTOWN VA      0200   71 77  170/  4/  5 1017.7S
JAMESTOWN VA     0200   71     120/  8/ 10   N/A
DOMINION TERM VA 0200   71     130/  9/ 12 1018.1R
KIPTOPEKE VA     0200      79  130/  5/  6   N/A
CHES BAY BRIDGE  0200   71 75  100/  8/ 11 1017.6S
CAPE HENRY VA    0200   70     110/ 10/ 11 1016.9R
CHESAPEAKE LGHT  0100   70      80/  9/ 10 1018.6R
WILLOUBY STN VA  0200   70      CALM  /  2 1016.8R
S CRANEY ISL VA  0200          100/  5/  6 1017.8R
CAPE HENRY BUOY  0200      75                N/A     3/13   2/13
1ST LANDING BUOY 0200   71     120/ 10/ 12 1017.7S
CAPE CHARLES BUO 0200      74                N/A     3/10   3/10
OFFSHORE WE BUOY 0200      74                N/A     3/12   3/12
64NM E OF VA BCH 0200   72 76   60/ 10/ 14 1017.7R   4/10   3/10
DUCK PIER NC     0200   72 75   70/ 11/ 12 1017.3R
44100 DUCK FRF   0200      75                N/A     4/11   2/11
44056 DUCK FRF   0200                        N/A     3/10   2/13
OREGON INLET NC  0200   71 74   40/ 10/ 13 1017.6R
HATTERAS NC      0200   72 77   50/  5/  9 1017.8R
DIAMOND SHLS NC  0200   73      30/ 12/ 17 1016.9R   5/12   3/12
CAPE LOOKOUT NC  0100   74      50/ 17/ 19 1016.7R
$$



USA.gov is the U.S. government's official web portal to all federal, state and local government web resources and services.